Terminal Aerodrome Forecast
Issued by NWS

Home | Current Version | Previous Version | Text Only | Print | Product List | Glossary On
Versions: 1 2 3 4 5 6 7 8 9 10 11 12 13 14 15 16 17 18 19 20 21 22 23 24 25 26 27 28 29 30 31 32 33 34 35 36 37 38 39
632
FTUS41 KBTV 111139
TAFPBG
TAF
KPBG 111139Z 1112/1212 32004KT P6SM OVC070
     FM111800 29013G19KT P6SM OVC040
     FM120200 30009KT P6SM BKN040
     FM120300 31010KT P6SM SCT070
     FM120700 28006KT P6SM FEW250=

USA.gov is the U.S. government's official web portal to all federal, state and local government web resources and services.